When you browse on this site, cookies collect data to enhance your experience and personalize the content and advertising you see.
Visit our Privacy Policy to learn more. By continuing to use the site, you agree to this use of cookies and data.
  • In Hungary
  • List of Countries
  • For 7 days
  • Water Temperature
  • Weather Map
  • News
  • Weather Widgets
  • user-avatar
    Login

    Hourly Weather Pazardzhik

    Today, 19 February, Wednesday

    Time Temperature Precipitation Wind Pressure Humidity
    00:00 +10°C° 0 mm 1 mps 746 mmHg 80%
    01:00 +10°C° 0 mm 1 mps 746 mmHg 82%
    02:00 +10°C° 0 mm 1 mps 746 mmHg 82%
    03:00 +10°C° 0 mm 1 mps 746 mmHg 83%
    04:00 +9°C° 0 mm 1 mps 746 mmHg 84%
    05:00 +9°C° 0 mm 1 mps 746 mmHg 85%
    06:00 +9°C° 0 mm 1 mps 746 mmHg 84%
    07:00 +9°C° 0 mm 1 mps 746 mmHg 83%
    08:00 +9°C° 0 mm 1 mps 746 mmHg 80%
    09:00 +10°C° 0 mm 1 mps 746 mmHg 76%
    10:00 +11°C° 0 mm 1 mps 746 mmHg 72%
    11:00 +12°C° 0 mm 1 mps 745 mmHg 68%
    12:00 +12°C° 0 mm 1 mps 745 mmHg 67%
    13:00 +13°C° 0 mm 2 mps 744 mmHg 66%
    14:00 +13°C° 0 mm 2 mps 744 mmHg 66%
    15:00 +13°C° 0 mm 2 mps 744 mmHg 69%
    16:00 +12°C° 0 mm 2 mps 743 mmHg 73%
    17:00 +10°C° 0 mm 2 mps 743 mmHg 76%
    18:00 +10°C° 0 mm 2 mps 743 mmHg 79%
    19:00 +10°C° 0 mm 2 mps 743 mmHg 81%
    20:00 +10°C° 0 mm 1 mps 743 mmHg 84%
    21:00 +10°C° 0.2 mm 1 mps 743 mmHg 85%
    22:00 +10°C° 0.2 mm 1 mps 743 mmHg 87%
    23:00 +9°C° 0.2 mm 1 mps 743 mmHg 88%

    Tomorrow, 20 February, Thursday

    Time Temperature Precipitation Wind Pressure Humidity
    00:00 +9°C° 0.3 mm 1 mps 742 mmHg 89%
    01:00 +9°C° 0.3 mm 1 mps 742 mmHg 91%
    02:00 +9°C° 0.3 mm 1 mps 742 mmHg 92%
    03:00 +8°C° 0.5 mm 1 mps 742 mmHg 92%
    04:00 +8°C° 0.5 mm 1 mps 741 mmHg 93%
    05:00 +8°C° 0.5 mm 1 mps 741 mmHg 93%
    06:00 +8°C° 0.5 mm 1 mps 741 mmHg 94%
    07:00 +8°C° 0.5 mm 1 mps 742 mmHg 94%
    08:00 +7°C° 0.5 mm 0 mps 742 mmHg 94%
    09:00 +8°C° 0.5 mm 1 mps 742 mmHg 92%
    10:00 +8°C° 0.5 mm 1 mps 742 mmHg 91%
    11:00 +8°C° 0.5 mm 1 mps 743 mmHg 89%
    12:00 +8°C° 0.4 mm 2 mps 743 mmHg 85%
    13:00 +8°C° 0.4 mm 3 mps 743 mmHg 81%
    14:00 +8°C° 0.4 mm 3 mps 743 mmHg 77%
    15:00 +8°C° 0.2 mm 3 mps 743 mmHg 76%
    16:00 +8°C° 0.2 mm 3 mps 743 mmHg 75%
    17:00 +8°C° 0.2 mm 3 mps 743 mmHg 73%
    18:00 +7°C° 0.1 mm 3 mps 743 mmHg 78%
    19:00 +5°C° 0.1 mm 3 mps 743 mmHg 82%
    20:00 +4°C° 0.1 mm 3 mps 744 mmHg 86%
    21:00 +4°C° 0.1 mm 3 mps 744 mmHg 85%
    22:00 +4°C° 0.1 mm 3 mps 744 mmHg 84%
    23:00 +4°C° 0.1 mm 3 mps 744 mmHg 83%

    Day after tomorrow, 21 February, Friday

    Time Temperature Precipitation Wind Pressure Humidity
    00:00 +4°C° 0.2 mm 3 mps 745 mmHg 83%
    01:00 +4°C° 0.2 mm 3 mps 745 mmHg 83%
    02:00 +4°C° 0.2 mm 3 mps 745 mmHg 83%
    03:00 +3°C° 0.1 mm 3 mps 745 mmHg 83%
    04:00 +4°C° 0.1 mm 2 mps 746 mmHg 84%
    05:00 +4°C° 0.1 mm 2 mps 746 mmHg 84%
    06:00 +4°C° 0.1 mm 2 mps 746 mmHg 84%
    07:00 +4°C° 0.1 mm 2 mps 747 mmHg 84%
    08:00 +4°C° 0.1 mm 2 mps 747 mmHg 84%
    15:00 +9°C° 0 mm 3 mps 747 mmHg 61%
    16:00 +9°C° 0 mm 3 mps 747 mmHg 62%
    17:00 +8°C° 0 mm 3 mps 747 mmHg 63%
    18:00 +7°C° 0 mm 3 mps 747 mmHg 67%
    19:00 +6°C° 0 mm 2 mps 748 mmHg 71%
    20:00 +5°C° 0 mm 2 mps 748 mmHg 75%
    21:00 +4°C° 0 mm 2 mps 748 mmHg 74%
    22:00 +4°C° 0 mm 2 mps 748 mmHg 72%
    23:00 +4°C° 0 mm 2 mps 748 mmHg 71%

    22 February, Saturday

    Time Temperature Precipitation Wind Pressure Humidity
    00:00 +4°C° 0 mm 2 mps 749 mmHg 72%
    01:00 +3°C° 0 mm 2 mps 749 mmHg 73%
    02:00 +2°C° 0 mm 3 mps 749 mmHg 73%
    03:00 +2°C° 0 mm 3 mps 749 mmHg 71%
    04:00 +2°C° 0 mm 3 mps 749 mmHg 68%
    05:00 +1°C° 0 mm 3 mps 749 mmHg 65%
    06:00 +1°C° 0 mm 3 mps 749 mmHg 66%
    07:00 +1°C° 0 mm 3 mps 749 mmHg 67%
    08:00 +2°C° 0 mm 3 mps 750 mmHg 68%
    09:00 +3°C° 0.1 mm 4 mps 750 mmHg 65%
    10:00 +4°C° 0.1 mm 4 mps 751 mmHg 62%
    11:00 +5°C° 0.1 mm 4 mps 751 mmHg 58%
    12:00 +5°C° 0.1 mm 4 mps 751 mmHg 57%
    13:00 +7°C° 0.1 mm 3 mps 751 mmHg 56%
    14:00 +8°C° 0.1 mm 3 mps 752 mmHg 55%
    15:00 +7°C° 0 mm 3 mps 752 mmHg 56%
    16:00 +7°C° 0 mm 3 mps 752 mmHg 57%
    17:00 +7°C° 0 mm 3 mps 752 mmHg 58%
    18:00 +5°C° 0 mm 3 mps 752 mmHg 63%
    19:00 +4°C° 0 mm 2 mps 753 mmHg 69%
    20:00 +4°C° 0 mm 1 mps 753 mmHg 74%
    21:00 +4°C° 0 mm 1 mps 753 mmHg 73%
    22:00 +3°C° 0 mm 2 mps 753 mmHg 73%
    23:00 +2°C° 0 mm 2 mps 753 mmHg 72%

    23 February, Sunday

    Time Temperature Precipitation Wind Pressure Humidity
    00:00 +2°C° 0 mm 2 mps 753 mmHg 70%
    01:00 +2°C° 0 mm 2 mps 753 mmHg 69%
    02:00 +2°C° 0 mm 2 mps 753 mmHg 67%
    03:00 +2°C° 0 mm 2 mps 753 mmHg 65%
    04:00 +2°C° 0 mm 2 mps 752 mmHg 63%
    05:00 +2°C° 0 mm 2 mps 752 mmHg 61%
    06:00 +2°C° 0 mm 2 mps 752 mmHg 58%
    07:00 +3°C° 0 mm 2 mps 752 mmHg 55%
    08:00 +4°C° 0 mm 2 mps 752 mmHg 52%
    09:00 +6°C° 0 mm 2 mps 752 mmHg 47%
    10:00 +8°C° 0 mm 2 mps 752 mmHg 42%
    11:00 +12°C° 0 mm 2 mps 751 mmHg 37%
    12:00 +12°C° 0 mm 3 mps 751 mmHg 36%
    13:00 +14°C° 0 mm 3 mps 750 mmHg 35%
    14:00 +16°C° 0 mm 3 mps 749 mmHg 34%
    15:00 +14°C° 0 mm 3 mps 749 mmHg 38%
    16:00 +15°C° 0 mm 2 mps 749 mmHg 42%
    17:00 +14°C° 0 mm 2 mps 748 mmHg 46%
    18:00 +13°C° 0 mm 2 mps 748 mmHg 48%
    19:00 +12°C° 0 mm 2 mps 748 mmHg 50%
    20:00 +9°C° 0 mm 3 mps 748 mmHg 52%
    21:00 +9°C° 0 mm 3 mps 748 mmHg 52%
    22:00 +9°C° 0 mm 3 mps 748 mmHg 52%
    23:00 +9°C° 0 mm 3 mps 748 mmHg 52%

    24 February, Monday

    Time Temperature Precipitation Wind Pressure Humidity
    00:00 +9°C° 0 mm 3 mps 747 mmHg 51%
    01:00 +9°C° 0 mm 2 mps 746 mmHg 50%
    02:00 +9°C° 0 mm 2 mps 746 mmHg 50%
    03:00 +8°C° 0 mm 2 mps 745 mmHg 50%
    04:00 +8°C° 0 mm 2 mps 745 mmHg 50%
    05:00 +8°C° 0 mm 2 mps 744 mmHg 51%
    06:00 +8°C° 0 mm 2 mps 744 mmHg 51%
    07:00 +8°C° 0 mm 3 mps 743 mmHg 51%
    08:00 +8°C° 0 mm 3 mps 743 mmHg 51%
    09:00 +11°C° 0 mm 3 mps 743 mmHg 47%
    10:00 +14°C° 0 mm 3 mps 743 mmHg 42%
    11:00 +17°C° 0 mm 4 mps 743 mmHg 38%
    12:00 +16°C° 0 mm 5 mps 744 mmHg 40%
    13:00 +16°C° 0 mm 7 mps 744 mmHg 42%
    14:00 +15°C° 0 mm 8 mps 744 mmHg 44%
    15:00 +13°C° 0 mm 8 mps 745 mmHg 46%
    16:00 +11°C° 0 mm 8 mps 745 mmHg 48%
    17:00 +10°C° 0 mm 8 mps 746 mmHg 49%
    18:00 +8°C° 0 mm 7 mps 747 mmHg 49%
    19:00 +7°C° 0 mm 6 mps 748 mmHg 48%
    20:00 +5°C° 0 mm 5 mps 749 mmHg 47%
    21:00 +5°C° 0 mm 4 mps 749 mmHg 49%
    22:00 +4°C° 0 mm 3 mps 750 mmHg 51%
    23:00 +3°C° 0 mm 3 mps 751 mmHg 54%
    Show more